www.pogodaiklimat.ru

Погода и климат >> Архив погоды >> Перу >> Lima


АРХИВ ПОГОДЫ в Lima

Время (UTC), дата Ветер
(напр.,м/с)
 
Видим.   Явления Облачность Т
(С)
Тd
(С)
f
(%)
Тe
(С)
Тes
(С)
Комфортность P
(гПа)
Po
(гПа)
Тmin
(С)
Tmax
(С)
R
(мм)
R24
(мм)
S
(см)
00 14.09 Ю 6 10 км 10/5 600 м
[Sc Ac trans]
+17.1 +13.9 81 +16 +16 по сезону 1015.4 1013.8 +20.8
03 14.09 Ю 6 10 км 10/10 300 м
[St]
+16.4 +14.6 89 +15 +15 по сезону 1016.4 1014.8
06 14.09 Ю 6 10 км 10/10 300 м
[St]
+16.3 +14.5 89 +15 +15 по сезону 1015.2 1013.6
09 14.09 Ю 4 10 км 10/10 330 м
[St]
+15.9 +13.9 88 +15 +15 по сезону 1015.1 1013.5
12 14.09 Ю 2 7000 м дымка 10/10 270 м
[St]
+15.5 +14.2 92 +16 +16 по сезону 1016.5 1014.9 +15.3
15 14.09 З 2 8000 м дымка 10/10 270 м
[St]
+16.4 +14.3 87 +16 +16 по сезону 1017.6 1016.0
18 14.09 З 3 10 км 10/10 450 м
[St]
+17.6 +14.2 80 +18 +18 по сезону 1016.4 1014.8
21 14.09 Ю 4 10 км 10/10 400 м
[St]
+17.8 +14.2 79 +18 +18 по сезону 1014.5 1012.9
00 15.09 Ю 5 10 км 9/9 420 м
[St]
+16.9 +14.0 83 +16 +16 по сезону 1014.8 1013.2 +18.6
03 15.09 Ю 4 10 км 6/6 660 м
[Sc]
+16.2 +14.2 88 +15 +15 по сезону 1015.7 1014.1
06 15.09 Ю 5 10 км 10/10 420 м
[St]
+16.3 +14.2 87 +15 +15 по сезону 1015.0 1013.4
09 15.09 Ю 5 10 км 10/10 450 м
[St]
+16.2 +14.1 87 +15 +15 по сезону 1014.5 1012.9
12 15.09 ЮВ 5 10 км 10/10 330 м
[St]
+16.0 +14.2 89 +15 +15 по сезону 1015.1 1013.7 +16.0
15 15.09 Ю 4 6000 м дымка 10/10 450 м
[St]
+18.6 +14.7 78 +19 +19 тепло 1016.3 1014.7
18 15.09 нст 7 10 км 5/5 500 м
[Sc]
+20.7 +14.7 68 +23 +26 комфорт 1015.3 1013.7
21 15.09 10 км н/о +18.4 +14.4 78 +18 +19 по сезону 1013.4 1011.8
00 16.09 Ю 6 10 км 6/6 360 м
[Sc]
+16.9 +14.6 86 +16 +16 по сезону 1014.3 1012.7 +20.9
03 16.09 Ю 6 10 км 10/10 300 м
[St]
+16.7 +14.9 89 +16 +16 по сезону 1015.7 1014.1
09 16.09 Ю 4 9000 м 10/10 300 м
[St]
+16.0 +14.2 89 +15 +15 по сезону 1012.9 1011.3
12 16.09 ЮВ 4 6000 м дымка 10/10 210 м
[St]
+15.4 +14.3 93 +14 +14 по сезону 1014.3 1012.7 +15.3
15 16.09 нст 3 9000 м 10/10 240 м
[St]
+16.9 +14.6 86 +17 +17 по сезону 1016.6 1015.0
18 16.09 Ю 5 10 км 10/10 400 м
[St]
+18.9 +14.6 76 +20 +20 тепло 1015.0 1013.4
21 16.09 Ю 6 10 км 10/10 300 м
[St]
+17.5 +14.6 83 +17 +17 по сезону 1014.0 1012.4
00 17.09 Ю 4 8000 м дымка 5/5 330 м
[St]
+16.3 +14.0 86 +16 +16 по сезону 1014.6 1013.0 +19.4
03 17.09 8000 м дымка н/о +16.5 +14.5 88 +16 +16 по сезону 1015.8 1014.2
06 17.09 10 км н/о +15.7 +14.4 92 +15 +15 по сезону 1015.0 1013.4
09 17.09 Ю 3 10 км 10/10 450 м
[St]
+15.7 +14.4 92 +15 +15 по сезону 1014.2 1012.6
15 17.09 нст 3 10 км 10/10 540 м
[St]
+17.5 +13.9 79 +18 +18 тепло 1016.1 1014.5
18 17.09 нст 4 10 км 10/6 500 м
[Sc]
+19.7 +14.6 72 +22 +24 комфорт 1014.0 1012.4
21 17.09 Ю 5 10 км 9/9 450 м
[St]
+18.3 +14.5 79 +18 +19 по сезону 1012.6 1011.0
00 18.09 Ю 7 10 км 10/10 300 м
[St]
+17.0 +14.7 86 +16 +16 по сезону 1013.9 1012.3 +20.3
06 18.09 Ю 5 10 км 10/10 300 м
[St]
+16.1 +14.3 89 +15 +15 по сезону 1013.5 1011.9
09 18.09 Ю 4 8000 м дымка 10/10 240 м
[St]
+15.5 +14.7 95 +15 +15 по сезону 1012.5 1010.9
12 18.09 ЮЗ 2 10 км 10/10 240 м
[St]
+15.7 +14.3 91 +16 +16 по сезону 1014.1 1012.1 +15.4
15 18.09 Ю 5 10 км 10/10 210 м
[St]
+17.0 +14.7 86 +16 +16 по сезону 1015.3 1013.7
18 18.09 Ю 4 10 км 10/10 400 м
[St]
+18.3 +14.6 79 +19 +19 по сезону 1013.4 1011.8
21 18.09 нст 4 10 км 10/10 400 м
[St]
+17.2 +14.0 81 +17 +17 по сезону 1011.9 1010.3
00 19.09 Ю 5 10 км 10/10 270 м
[St]
+16.7 +14.6 87 +16 +16 по сезону 1012.5 1010.9 +18.4
03 19.09 Ю 5 10 км 10/10 300 м
[St]
+16.2 +14.2 88 +15 +15 по сезону 1013.5 1011.9
06 19.09 Ю 4 10 км 10/10 300 м
[St]
+15.8 +14.0 89 +15 +15 по сезону 1012.5 1010.9
09 19.09 штиль 0 10 км 10/10 400 м
[St]
+15.4 +14.0 91 +15 +15 по сезону 1011.9 1010.3
12 19.09 Ю 2 10 км 10/10 360 м
[St]
+15.9 +13.9 88 +16 +16 по сезону 1013.6 1012.0 +15.0
15 19.09 ЮЗ 2 10 км 10/10 300 м
[St]
+16.2 +14.2 88 +17 +17 по сезону 1014.3 1012.7
18 19.09 ЮЗ 3 10 км 10/10 360 м
[St]
+17.2 +10.8 66 +17 +17 по сезону 1012.4 1012.0
21 19.09 Ю 4 10 км 10/10 400 м
[St]
+16.9 +13.7 81 +17 +17 по сезону 1011.5 1009.9
00 20.09 Ю 4 10 км 10/10 450 м
[St]
+16.2 +13.6 85 +15 +15 по сезону 1011.9 1010.3 +17.3
03 20.09 Ю 3 10 км 10/10 500 м
[St]
+16.4 +13.9 85 +16 +16 по сезону 1013.1 1011.5
06 20.09 ЮЗ 2 8000 м дымка 10/10 450 м
[St]
+15.5 +14.2 92 +15 +15 по сезону 1012.5 1010.9
09 20.09 нст 2 3500 м дымка {морось} 10/10 300 м
[St]
+15.1 +13.7 91 +15 +15 по сезону 1011.6 1010.0
12 20.09 нст 2 8000 м дымка {туман} 10/10 360 м
[St]
+15.2 +13.8 91 +15 +15 по сезону 1013.7 1012.1 +15.0 0.0
15 20.09 СЗ 3 10 км {туман} 10/10 300 м
[St]
+16.2 +13.9 86 +16 +16 по сезону 1014.8 1013.2
18 20.09 СЗ 3 10 км 10/10 570 м
[St]
+17.4 +14.3 82 +17 +17 по сезону 1013.2 1011.1

 

Местоположение метеостанции Lima (Перу): широта -12.00 долгота -77.11 высота над уровнем моря 13 м.

В архиве по умолчанию представлена погода в Lima за последнюю неделю. Архивные данные за месяц целиком и за предыдущие месяцы, начиная с января 2011 года, Вы можете получить, выбрав интересующий диапазон дат из раскрывающегося списка и нажав кнопку "Ввод!".


*Определитесь, кто Вы:
робот инопланетянин человек

Внимание! Время в таблицах - всемирное. Для получения местного времени необходимо прибавить поправку, которая в Lima равна -5 ч.

Смотрите также архив погоды в соседних городах и на ближайших метеорологических станциях:

Погода в Pisco (Перу) (216 км)
Погода в Huanuco (Перу) (257 км)
Погода в Anta (Перу) (300 км)
Погода в Tingo Maria (Перу) (326 км)
Погода в Ayacucho (Перу) (341 км)
Погода в Chimbote (Перу) (354 км)
Погода в Nazca (Перу) (394 км)
Погода в Andahualaylas (Перу) (450 км)
Погода в Trujillo (Перу) (487 км)
Погода в Pucallpa (Перу) (491 км)

Пояснения к столбцам:

Ветер - указаны скорость ветра в м/с - средняя за 10 мин, порывы в срок и между сроками (в фигурных скобках) и направление, откуда дует ветер: С - северный, СВ - северо-восточный, В - восточный, ЮВ - юго-восточный, Ю - южный, ЮЗ - юго-западный, З - западный, СЗ - северо-западный.
Видимость - горизонтальная дальность видимости в метрах или километрах. При видимости от 1 до 10 км при отсутствии осадков обычно наблюдается дымка, при ухудшении видимости до 1 км и менее - туман. В сухую погоду видимость может ухудшаться дымом, пылью или мглою.
Явления - указаны атмосферные явления, наблюдавшиеся в срок или в последний час перед сроком; фигурными скобками обозначены явления, наблюдавшиеся между сроками (за 1-3 часа до срока); квадратными скобками обозначены град или гололедные отложения с указанием их диаметра в мм.
Облачность - указаны через наклонную черту общая и нижняя облачность в баллах и высота нижней границы облаков в метрах; квадратными скобками обозначены формы облаков: Ci - перистые, Cs - перисто-слоистые, Cc - перисто-кучевые, Ac - высококучевые, As - высокослоистые, Sc - слоисто-кучевые, Ns - слоисто-дождевые, Cu - кучевые, Cb - кучево-дождевые. Подробнее классификацию облаков см. в Атласе облаков (PDF).
T - Температура воздуха - температура, измеренная на высоте 2 м над землей.
Td - Температура точки росы - температура, при понижении до которой содержащийся в воздухе водяной пар достигнет насыщения.
f - Относительная влажность воздуха - влажноcть воздуха, измеренная на высоте 2 м над землей.
Te - Эффективная температура - температура, которую ощущает одетый по сезону человек в тени. Характеристика душности погоды. При расчете учитывается влияние влажности воздуха и скорости ветра на теплоощущения человека.
Tes - Эффективная температура на солнце - температура, которую ощущает человек, с поправкой на солнечный нагрев. Характеристика знойности погоды. Зависит от высоты солнца над горизонтом, облачности и скорости ветра. Ночью, в пасмурную погоду, а также при ветре 12 м/с и более поправка равна нулю.
P - Атмосферное давление - приведенное к уровню моря атмосферное давление.
Po - Атмосферное давление - измеренное на уровне метеостанции атмосферное давление.
Tmin - Минимальная температура - минимум температуры воздуха на высоте 2 м над землей.
Tmax - Максимальная температура - максимум температуры воздуха на высоте 2 м над землей.
R - Количество осадков - Количество выпавших осадков за период времени, мм. При наведении курсора мыши на число - период времени, за который выпало указанное количество осадков.
R24 - Количество осадков - Количество выпавших осадков за 24 часа, мм.
S - Снежный покров - Высота снежного покрова, см. При наведении курсора мыши на число - состояние снежного покрова и степень покрытия местности в баллах.